• en France
  • Liste des pays
  • À 7 jours
  • Température de l'eau
  • Carte satellitaire
  • Carte météo
  • Widgets météo
  • user-avatar
    Se connecter

    Météo par heure à Gamboma

    Ce jour, 20 Août, Lundi

    Heure Température Précipitation Vent Pression Humidité
    00:00 +26°C° 0,6 mm 2 m/s 730 mmHg 75%
    01:00 +26°C° 0 mm 2 m/s 730 mmHg 78%
    02:00 +26°C° 0,6 mm 2 m/s 730 mmHg 78%
    03:00 +26°C° 0,6 mm 2 m/s 730 mmHg 79%
    04:00 +25°C° 0,6 mm 2 m/s 730 mmHg 80%
    05:00 +25°C° 0,1 mm 2 m/s 730 mmHg 80%
    06:00 +25°C° 0,1 mm 2 m/s 730 mmHg 79%
    07:00 +26°C° 0 mm 3 m/s 731 mmHg 77%
    08:00 +28°C° 0 mm 3 m/s 731 mmHg 69%
    09:00 +30°C° 0 mm 3 m/s 731 mmHg 61%
    10:00 +31°C° 0 mm 3 m/s 731 mmHg 53%
    11:00 +33°C° 0,1 mm 3 m/s 730 mmHg 49%
    12:00 +35°C° 0,1 mm 3 m/s 730 mmHg 45%
    13:00 +36°C° 0,1 mm 3 m/s 729 mmHg 41%
    14:00 +35°C° 0 mm 2 m/s 728 mmHg 41%
    15:00 +35°C° 0 mm 2 m/s 728 mmHg 41%
    16:00 +35°C° 0 mm 2 m/s 727 mmHg 41%
    17:00 +34°C° 0 mm 2 m/s 727 mmHg 43%
    18:00 +32°C° 0 mm 1 m/s 728 mmHg 46%
    19:00 +31°C° 0 mm 1 m/s 728 mmHg 49%
    20:00 +31°C° 0,1 mm 1 m/s 728 mmHg 51%
    21:00 +30°C° 0,1 mm 1 m/s 729 mmHg 53%
    22:00 +30°C° 0,1 mm 1 m/s 729 mmHg 55%
    23:00 +29°C° 0 mm 2 m/s 729 mmHg 57%

    Demain, 21 Août, Mardi

    Heure Température Précipitation Vent Pression Humidité
    00:00 +29°C° 0 mm 2 m/s 729 mmHg 59%
    01:00 +29°C° 0 mm 2 m/s 729 mmHg 61%
    02:00 +28°C° 0 mm 2 m/s 729 mmHg 62%
    03:00 +28°C° 0 mm 3 m/s 729 mmHg 63%
    04:00 +27°C° 0 mm 3 m/s 729 mmHg 64%
    05:00 +27°C° 0 mm 3 m/s 729 mmHg 64%
    06:00 +27°C° 0 mm 3 m/s 729 mmHg 63%
    07:00 +27°C° 0 mm 3 m/s 729 mmHg 62%
    08:00 +29°C° 0 mm 3 m/s 730 mmHg 56%
    09:00 +31°C° 0 mm 3 m/s 730 mmHg 50%
    10:00 +33°C° 0 mm 3 m/s 731 mmHg 44%
    11:00 +35°C° 0 mm 3 m/s 730 mmHg 40%
    12:00 +36°C° 0 mm 3 m/s 729 mmHg 37%
    13:00 +37°C° 0 mm 2 m/s 729 mmHg 33%
    14:00 +37°C° 0 mm 2 m/s 728 mmHg 33%
    15:00 +37°C° 0 mm 2 m/s 727 mmHg 33%
    16:00 +37°C° 0 mm 2 m/s 727 mmHg 33%
    17:00 +35°C° 0 mm 1 m/s 727 mmHg 36%
    18:00 +34°C° 0 mm 1 m/s 727 mmHg 39%
    19:00 +33°C° 0 mm 1 m/s 728 mmHg 41%
    20:00 +32°C° 0,1 mm 1 m/s 728 mmHg 45%
    21:00 +31°C° 0,1 mm 1 m/s 729 mmHg 49%
    22:00 +30°C° 0,1 mm 1 m/s 729 mmHg 53%
    23:00 +30°C° 0,3 mm 1 m/s 729 mmHg 57%

    Après-demain, 22 Août, Mercredi

    Heure Température Précipitation Vent Pression Humidité
    00:00 +29°C° 0,3 mm 2 m/s 729 mmHg 61%
    01:00 +28°C° 0,3 mm 2 m/s 729 mmHg 65%
    02:00 +28°C° 0,1 mm 2 m/s 729 mmHg 65%
    03:00 +28°C° 0,1 mm 3 m/s 728 mmHg 66%
    04:00 +27°C° 0,1 mm 3 m/s 728 mmHg 67%
    05:00 +27°C° 0 mm 3 m/s 729 mmHg 67%
    06:00 +27°C° 0 mm 3 m/s 729 mmHg 68%
    07:00 +27°C° 0 mm 3 m/s 729 mmHg 68%
    08:00 +28°C° 0 mm 3 m/s 730 mmHg 63%
    09:00 +29°C° 0 mm 3 m/s 731 mmHg 59%
    10:00 +31°C° 0 mm 3 m/s 731 mmHg 55%
    11:00 +33°C° 0 mm 3 m/s 731 mmHg 51%
    12:00 +34°C° 0 mm 3 m/s 730 mmHg 48%
    13:00 +35°C° 0 mm 3 m/s 729 mmHg 45%
    14:00 +34°C° 0 mm 3 m/s 728 mmHg 45%
    15:00 +34°C° 0 mm 3 m/s 728 mmHg 45%
    16:00 +34°C° 0 mm 3 m/s 727 mmHg 46%
    17:00 +33°C° 0 mm 3 m/s 728 mmHg 50%
    18:00 +30°C° 0 mm 2 m/s 728 mmHg 54%
    19:00 +29°C° 0 mm 2 m/s 729 mmHg 58%
    20:00 +29°C° 0,2 mm 2 m/s 729 mmHg 61%
    21:00 +28°C° 0,2 mm 2 m/s 730 mmHg 64%
    22:00 +28°C° 0,2 mm 2 m/s 730 mmHg 68%
    23:00 +27°C° 0,1 mm 2 m/s 730 mmHg 68%

    23 Août, Jeudi

    Heure Température Précipitation Vent Pression Humidité
    00:00 +27°C° 0,1 mm 2 m/s 730 mmHg 68%
    01:00 +27°C° 0,1 mm 2 m/s 730 mmHg 69%
    02:00 +26°C° 0,1 mm 2 m/s 729 mmHg 70%
    03:00 +26°C° 0,1 mm 2 m/s 729 mmHg 72%
    04:00 +26°C° 0,1 mm 2 m/s 729 mmHg 73%
    05:00 +26°C° 0,1 mm 2 m/s 729 mmHg 73%
    06:00 +26°C° 0,1 mm 2 m/s 730 mmHg 74%
    07:00 +26°C° 0,1 mm 2 m/s 730 mmHg 75%
    08:00 +27°C° 0 mm 2 m/s 731 mmHg 68%
    09:00 +28°C° 0 mm 2 m/s 731 mmHg 62%
    10:00 +30°C° 0 mm 2 m/s 731 mmHg 55%
    11:00 +30°C° 0 mm 2 m/s 731 mmHg 53%
    12:00 +31°C° 0 mm 2 m/s 730 mmHg 50%
    13:00 +32°C° 0 mm 2 m/s 729 mmHg 47%
    14:00 +31°C° 0,1 mm 2 m/s 728 mmHg 51%
    15:00 +30°C° 0,1 mm 2 m/s 728 mmHg 55%
    16:00 +30°C° 0,1 mm 1 m/s 727 mmHg 58%
    17:00 +29°C° 0,1 mm 1 m/s 728 mmHg 63%
    18:00 +28°C° 0,1 mm 1 m/s 728 mmHg 67%
    19:00 +27°C° 0,1 mm 1 m/s 729 mmHg 71%
    20:00 +27°C° 0,1 mm 1 m/s 729 mmHg 72%
    21:00 +26°C° 0,1 mm 2 m/s 729 mmHg 72%
    22:00 +26°C° 0,1 mm 2 m/s 730 mmHg 72%
    23:00 +26°C° 0,2 mm 2 m/s 729 mmHg 73%

    24 Août, Vendredi

    Heure Température Précipitation Vent Pression Humidité
    00:00 +26°C° 0,2 mm 2 m/s 729 mmHg 74%
    01:00 +25°C° 0,2 mm 1 m/s 729 mmHg 74%
    02:00 +25°C° 0,1 mm 1 m/s 729 mmHg 75%
    03:00 +25°C° 0,1 mm 1 m/s 728 mmHg 75%
    04:00 +25°C° 0,1 mm 1 m/s 728 mmHg 76%
    05:00 +25°C° 0,2 mm 1 m/s 729 mmHg 75%
    06:00 +25°C° 0,2 mm 1 m/s 729 mmHg 75%
    07:00 +25°C° 0,2 mm 1 m/s 730 mmHg 75%
    08:00 +26°C° 0,1 mm 1 m/s 730 mmHg 70%
    09:00 +27°C° 0,1 mm 1 m/s 730 mmHg 65%
    10:00 +28°C° 0,1 mm 2 m/s 731 mmHg 60%
    11:00 +29°C° 0 mm 2 m/s 730 mmHg 56%
    12:00 +30°C° 0 mm 2 m/s 729 mmHg 53%
    13:00 +31°C° 0 mm 2 m/s 729 mmHg 49%
    14:00 +31°C° 0 mm 2 m/s 728 mmHg 49%
    15:00 +32°C° 0 mm 2 m/s 728 mmHg 48%
    16:00 +32°C° 0 mm 2 m/s 727 mmHg 48%
    17:00 +30°C° 0 mm 1 m/s 728 mmHg 52%
    18:00 +29°C° 0 mm 1 m/s 728 mmHg 56%
    19:00 +28°C° 0 mm 1 m/s 729 mmHg 60%
    20:00 +27°C° 0 mm 1 m/s 729 mmHg 62%
    21:00 +27°C° 0 mm 1 m/s 729 mmHg 63%
    22:00 +27°C° 0 mm 1 m/s 730 mmHg 64%
    23:00 +26°C° 0 mm 1 m/s 729 mmHg 66%

    25 Août, Samedi

    Heure Température Précipitation Vent Pression Humidité
    00:00 +26°C° 0 mm 1 m/s 729 mmHg 67%
    01:00 +26°C° 0 mm 1 m/s 729 mmHg 68%
    02:00 +26°C° 0 mm 1 m/s 729 mmHg 69%
    03:00 +25°C° 0 mm 1 m/s 729 mmHg 70%
    04:00 +25°C° 0 mm 1 m/s 728 mmHg 71%
    05:00 +25°C° 0 mm 1 m/s 729 mmHg 71%
    06:00 +25°C° 0 mm 1 m/s 730 mmHg 71%
    07:00 +25°C° 0 mm 1 m/s 730 mmHg 71%
    08:00 +27°C° 0 mm 1 m/s 730 mmHg 65%
    09:00 +29°C° 0 mm 1 m/s 731 mmHg 59%
    10:00 +30°C° 0 mm 1 m/s 731 mmHg 53%
    11:00 +31°C° 0 mm 1 m/s 730 mmHg 49%
    12:00 +32°C° 0 mm 1 m/s 729 mmHg 45%
    13:00 +35°C° 0 mm 2 m/s 729 mmHg 41%
    14:00 +35°C° 0 mm 2 m/s 728 mmHg 41%
    15:00 +34°C° 0 mm 1 m/s 728 mmHg 40%
    16:00 +34°C° 0 mm 1 m/s 727 mmHg 39%
    17:00 +33°C° 0 mm 1 m/s 727 mmHg 43%
    18:00 +31°C° 0 mm 1 m/s 728 mmHg 48%
    19:00 +30°C° 0 mm 1 m/s 728 mmHg 52%
    20:00 +29°C° 0 mm 1 m/s 729 mmHg 54%
    21:00 +29°C° 0 mm 1 m/s 729 mmHg 57%
    22:00 +28°C° 0 mm 1 m/s 729 mmHg 59%
    23:00 +28°C° 0,2 mm 1 m/s 729 mmHg 61%
    Voir plus